TimeEST,TemperatureF,Dew PointF,Humidity,Sea Level PressureIn,VisibilityMPH,Wind Direction,Wind SpeedMPH,Gust SpeedMPH,PrecipitationIn,Events,Conditions,WindDirDegrees,DateUTC
12:43 AM,37.4,33.8,87,30.00,8.0,NW,6.9,-,0.01,Rain,Light Rain,320,2013-02-16 05:43:00
12:54 AM,36.0,34.0,93,30.00,7.0,NNW,10.4,-,0.01,Rain,Light Rain,340,2013-02-16 05:54:00
1:54 AM,36.0,34.0,93,29.99,8.0,NW,5.8,-,0.01,,Overcast,320,2013-02-16 06:54:00
2:06 AM,35.6,33.8,93,29.99,8.0,NW,4.6,-,N/A,,Overcast,310,2013-02-16 07:06:00
2:28 AM,35.6,33.8,93,29.99,8.0,NW,5.8,-,0.00,Rain,Light Rain,320,2013-02-16 07:28:00
2:54 AM,35.1,33.1,92,29.97,8.0,North,6.9,-,0.01,Rain,Light Rain,360,2013-02-16 07:54:00
3:29 AM,35.6,33.8,93,29.96,7.0,North,3.5,-,0.00,,Overcast,350,2013-02-16 08:29:00
3:36 AM,35.6,30.2,81,29.97,8.0,NNW,4.6,-,0.00,,Overcast,330,2013-02-16 08:36:00
3:43 AM,35.6,33.8,93,29.96,8.0,NW,4.6,-,0.00,,Overcast,320,2013-02-16 08:43:00
3:54 AM,35.1,33.1,92,29.96,8.0,North,5.8,-,0.00,,Overcast,360,2013-02-16 08:54:00
4:06 AM,35.6,33.8,93,29.96,8.0,NW,4.6,-,N/A,,Overcast,320,2013-02-16 09:06:00
4:54 AM,35.1,33.1,92,29.97,8.0,NNW,3.5,-,N/A,,Overcast,330,2013-02-16 09:54:00
5:44 AM,35.6,33.8,93,29.96,10.0,NNW,5.8,-,N/A,,Overcast,340,2013-02-16 10:44:00
5:54 AM,36.0,33.1,89,29.96,10.0,NNW,5.8,-,N/A,,Overcast,340,2013-02-16 10:54:00
6:02 AM,35.6,33.8,93,29.96,10.0,North,5.8,-,N/A,,Overcast,350,2013-02-16 11:02:00
6:54 AM,35.1,32.0,89,29.96,10.0,North,10.4,-,N/A,,Overcast,360,2013-02-16 11:54:00
7:54 AM,35.1,30.0,82,29.99,10.0,North,11.5,-,N/A,,Overcast,350,2013-02-16 12:54:00
8:54 AM,35.1,27.0,72,29.97,10.0,North,11.5,-,N/A,,Overcast,350,2013-02-16 13:54:00
9:08 AM,35.6,26.6,70,29.96,10.0,North,12.7,-,N/A,,Overcast,350,2013-02-16 14:08:00
9:36 AM,35.6,26.6,70,29.97,10.0,North,12.7,-,N/A,,Overcast,10,2013-02-16 14:36:00
9:54 AM,36.0,26.1,67,29.97,10.0,North,10.4,-,N/A,,Overcast,360,2013-02-16 14:54:00
10:54 AM,37.0,25.0,62,29.96,10.0,NNE,10.4,-,N/A,,Overcast,30,2013-02-16 15:54:00
11:54 AM,37.9,21.9,53,29.94,10.0,NNE,8.1,-,N/A,,Mostly Cloudy,20,2013-02-16 16:54:00
12:54 PM,37.9,23.0,55,29.91,10.0,North,11.5,-,N/A,,Mostly Cloudy,360,2013-02-16 17:54:00
1:54 PM,37.9,24.1,57,29.90,10.0,NNW,9.2,-,N/A,,Mostly Cloudy,340,2013-02-16 18:54:00
2:54 PM,37.0,23.0,57,29.90,10.0,North,10.4,-,N/A,,Overcast,350,2013-02-16 19:54:00
3:54 PM,36.0,25.0,64,29.88,10.0,North,10.4,-,N/A,,Overcast,360,2013-02-16 20:54:00
4:54 PM,35.1,24.1,64,29.88,10.0,North,10.4,-,N/A,,Overcast,10,2013-02-16 21:54:00
5:54 PM,35.1,21.9,59,29.88,10.0,North,10.4,-,N/A,,Overcast,360,2013-02-16 22:54:00
6:54 PM,34.0,21.0,59,29.86,10.0,NNW,11.5,-,N/A,,Overcast,340,2013-02-16 23:54:00
7:54 PM,33.1,18.0,54,29.85,10.0,North,15.0,23.0,N/A,,Overcast,350,2013-02-17 00:54:00
8:54 PM,32.0,16.0,52,29.85,10.0,NNW,11.5,-,N/A,,Overcast,340,2013-02-17 01:54:00
9:54 PM,32.0,16.0,52,29.83,10.0,North,17.3,21.9,N/A,,Overcast,350,2013-02-17 02:54:00
10:54 PM,30.9,15.1,52,29.81,10.0,North,13.8,24.2,N/A,,Overcast,360,2013-02-17 03:54:00
11:54 PM,30.0,12.0,47,29.79,10.0,North,16.1,20.7,N/A,,Overcast,350,2013-02-17 04:54:00